Weather History for Harlan, KY

Change the Weather History Date:

Sunday, April 13, 2014

  Actual Average (KLOZ) Record (KLOZ)
Temperature  
Mean Temperature 74 °F 56 °F  
Max Temperature 82 °F 68 °F 86 °F (1977)
Min Temperature 66 °F 44 °F 28 °F (1989)
Degree Days  
Heating Degree Days 0 10  
Month to date heating degree days 149  
Since 1 July heating degree days 3974  
Cooling Degree Days 9 1  
Month to date cooling degree days 5  
Year to date cooling degree days 8  
Growing Degree Days 24 (Base 50)    
Moisture  
Dew Point 46 °F    
Average Humidity 38    
Maximum Humidity 49    
Minimum Humidity 25    
Precipitation  
Precipitation 0.00 in 0.13 in 0.81 in (2004)
Month to date precipitation 1.69  
Year to date precipitation 12.99  
Sea Level Pressure  
Sea Level Pressure 30.03 in    
Wind  
Wind Speed 5 mph (SW)    
Max Wind Speed 13 mph    
Max Gust Speed 25 mph    
Visibility 10 miles    
Events      
T = Trace of Precipitation, MM = Missing Value Source: NWS Daily Summary

Daily Weather History Graph

Daily Weather History Graph

Search for Another Location

Airport:

Trip Planner

Search our weather history database for the weather conditions in past years. The results will help you decide how hot, cold, wet, or windy it might be!

Date:

Astronomy

Apr. 13, 2014 Rise Set
Actual Time 7:02 AM EDT 8:06 PM EDT
Civil Twilight 6:35 AM EDT 8:33 PM EDT
Nautical Twilight 6:03 AM EDT 9:04 PM EDT
Astronomical Twilight 5:31 AM EDT 9:37 PM EDT
Moon 6:45 PM EDT (4/13) 5:57 AM EDT (4/13)
Length of Visible Light 13h 57m
Length of Day
13h 04m
Waxing Gibbous, 97% of the Moon is Illuminated
Apr 13
Waxing Gibbous
Apr 15
Full
Apr 22
Last Quarter
Apr 29
New
May 6
First Quarter

Hourly Weather History & Observations

Time (EDT) Temp. Dew Point Humidity Pressure Visibility Wind Dir Wind Speed Gust Speed Precip Events Conditions
12:15 AM 68.0 °F 46.4 °F 46% 30.05 in 10.0 mi WSW 4.6 mph - N/A   Clear
12:35 AM 69.8 °F 46.4 °F 43% 30.06 in 10.0 mi WSW 3.5 mph - N/A   Clear
12:55 AM 69.8 °F 44.6 °F 40% 30.06 in 10.0 mi WSW 4.6 mph - N/A   Clear
1:15 AM 69.8 °F 44.6 °F 40% 30.05 in 10.0 mi WSW 5.8 mph 17.3 mph N/A   Clear
1:35 AM 69.8 °F 44.6 °F 40% 30.05 in 10.0 mi SSE 4.6 mph - N/A   Clear
1:55 AM 69.8 °F 42.8 °F 38% 30.05 in 10.0 mi Calm Calm - N/A   Clear
2:15 AM 69.8 °F 42.8 °F 38% 30.05 in 10.0 mi SSW 6.9 mph - N/A   Clear
2:35 AM 69.8 °F 42.8 °F 38% 30.05 in 10.0 mi Calm Calm - N/A   Clear
2:55 AM 69.8 °F 44.6 °F 40% 30.05 in 10.0 mi WSW 3.5 mph - N/A   Clear
3:15 AM 69.8 °F 44.6 °F 40% 30.05 in 10.0 mi WSW 5.8 mph - N/A   Clear
3:35 AM 68.0 °F 44.6 °F 43% 30.05 in 10.0 mi West 4.6 mph - N/A   Clear
3:55 AM 68.0 °F 44.6 °F 43% 30.06 in 10.0 mi West 6.9 mph - N/A   Clear
4:15 AM 68.0 °F 44.6 °F 43% 30.06 in 10.0 mi WSW 8.1 mph - N/A   Clear
4:35 AM 68.0 °F 44.6 °F 43% 30.06 in 10.0 mi West 6.9 mph 17.3 mph N/A   Clear
4:55 AM 68.0 °F 46.4 °F 46% 30.06 in 10.0 mi SW 5.8 mph - N/A   Clear
5:15 AM 68.0 °F 46.4 °F 46% 30.07 in 10.0 mi SW 6.9 mph 19.6 mph N/A   Clear
5:35 AM 68.0 °F 46.4 °F 46% 30.07 in 10.0 mi West 5.8 mph 17.3 mph N/A   Clear
5:55 AM 68.0 °F 46.4 °F 46% 30.08 in 10.0 mi Calm Calm - N/A   Clear
6:15 AM 68.0 °F 46.4 °F 46% 30.08 in 10.0 mi South 4.6 mph 20.7 mph N/A   Clear
6:35 AM 68.0 °F 46.4 °F 46% 30.08 in 10.0 mi South 4.6 mph - N/A   Clear
6:55 AM 68.0 °F 46.4 °F 46% 30.08 in 10.0 mi WSW 6.9 mph - N/A   Clear
7:15 AM 66.2 °F 46.4 °F 49% 30.08 in 10.0 mi SSW 5.8 mph - N/A   Clear
7:35 AM 68.0 °F 46.4 °F 46% 30.09 in 10.0 mi WSW 5.8 mph - N/A   Clear
7:55 AM 68.0 °F 46.4 °F 46% 30.10 in 10.0 mi WSW 4.6 mph - N/A   Clear
8:15 AM 68.0 °F 46.4 °F 46% 30.11 in 10.0 mi WSW 4.6 mph - N/A   Clear
8:35 AM 68.0 °F 46.4 °F 46% 30.12 in 10.0 mi SW 9.2 mph - N/A   Clear
8:55 AM 69.8 °F 46.4 °F 43% 30.12 in 10.0 mi SSW 9.2 mph - N/A   Clear
9:15 AM 69.8 °F 46.4 °F 43% 30.12 in 10.0 mi WNW 4.6 mph 19.6 mph N/A   Clear
9:35 AM 69.8 °F 46.4 °F 43% 30.12 in 10.0 mi SW 10.4 mph - N/A   Clear
9:55 AM 71.6 °F 46.4 °F 41% 30.12 in 10.0 mi SW 9.2 mph 19.6 mph N/A   Clear
10:15 AM 71.6 °F 46.4 °F 41% 30.12 in 10.0 mi SW 12.7 mph 25.3 mph N/A   Clear
10:55 AM 71.6 °F 46.4 °F 41% 30.13 in 10.0 mi SSW 5.8 mph - N/A   Clear
11:15 AM 73.4 °F 46.4 °F 38% 30.13 in 10.0 mi SSW 3.5 mph - N/A   Scattered Clouds
11:35 AM 71.6 °F 46.4 °F 41% 30.13 in 10.0 mi WSW 9.2 mph 21.9 mph N/A   Mostly Cloudy
11:55 AM 73.4 °F 46.4 °F 38% 30.12 in 10.0 mi WSW 8.1 mph - N/A   Mostly Cloudy
12:15 PM 75.2 °F 46.4 °F 36% 30.10 in 10.0 mi SE 9.2 mph - N/A   Mostly Cloudy
12:35 PM 75.2 °F 46.4 °F 36% 30.09 in 10.0 mi SSW 9.2 mph 19.6 mph N/A   Mostly Cloudy
12:55 PM 77.0 °F 46.4 °F 34% 30.08 in 10.0 mi South 8.1 mph - N/A   Scattered Clouds
1:15 PM 78.8 °F 46.4 °F 32% 30.06 in 10.0 mi SW 8.1 mph - N/A   Clear
1:35 PM 78.8 °F 46.4 °F 32% 30.06 in 10.0 mi WSW 9.2 mph - N/A   Clear
1:55 PM 78.8 °F 44.6 °F 30% 30.06 in 10.0 mi SW 8.1 mph - N/A   Clear
2:15 PM 80.6 °F 46.4 °F 30% 30.04 in 10.0 mi SSW 6.9 mph - N/A   Clear
2:35 PM 80.6 °F 44.6 °F 28% 30.03 in 10.0 mi SSW 8.1 mph 18.4 mph N/A   Clear
2:55 PM 80.6 °F 44.6 °F 28% 30.02 in 10.0 mi SSW 5.8 mph 18.4 mph N/A   Clear
3:15 PM 80.6 °F 44.6 °F 28% 30.01 in 10.0 mi South 11.5 mph 20.7 mph N/A   Clear
3:35 PM 82.4 °F 44.6 °F 26% 30.01 in 10.0 mi Calm Calm - N/A   Clear
3:55 PM 82.4 °F 44.6 °F 26% 30.00 in 10.0 mi SW 8.1 mph - N/A   Clear
4:15 PM 82.4 °F 44.6 °F 26% 29.99 in 10.0 mi SW 5.8 mph - N/A   Clear
4:35 PM 82.4 °F 44.6 °F 26% 29.98 in 10.0 mi SW 9.2 mph - N/A   Clear
4:55 PM 82.4 °F 42.8 °F 25% 29.97 in 10.0 mi SW 5.8 mph - N/A   Clear
5:35 PM 80.6 °F 44.6 °F 28% 29.96 in 10.0 mi Calm Calm - N/A   Clear
5:55 PM 80.6 °F 44.6 °F 28% 29.96 in 10.0 mi Calm Calm - N/A   Scattered Clouds
6:15 PM 80.6 °F 44.6 °F 28% 29.96 in 10.0 mi Calm Calm - N/A   Scattered Clouds
6:35 PM 78.8 °F 44.6 °F 30% 29.96 in 10.0 mi SSE 3.5 mph - N/A   Clear
6:55 PM 78.8 °F 46.4 °F 32% 29.95 in 10.0 mi South 3.5 mph - N/A   Clear
7:15 PM 78.8 °F 46.4 °F 32% 29.95 in 10.0 mi Calm Calm - N/A   Clear
7:35 PM 77.0 °F 46.4 °F 34% 29.95 in 10.0 mi SW 6.9 mph - N/A   Clear
7:55 PM 77.0 °F 46.4 °F 34% 29.95 in 10.0 mi SW 5.8 mph - N/A   Clear
8:15 PM 77.0 °F 46.4 °F 34% 29.96 in 10.0 mi SSW 3.5 mph - N/A   Clear
8:35 PM 73.4 °F 46.4 °F 38% 29.96 in 10.0 mi SSW 3.5 mph - N/A   Clear
8:55 PM 73.4 °F 46.4 °F 38% 29.95 in 10.0 mi SSW 4.6 mph - N/A   Clear
9:15 PM 73.4 °F 46.4 °F 38% 29.96 in 10.0 mi Calm Calm - N/A   Clear
9:35 PM 73.4 °F 46.4 °F 38% 29.95 in 10.0 mi West 4.6 mph - N/A   Clear
9:55 PM 71.6 °F 46.4 °F 41% 29.96 in 10.0 mi SSW 3.5 mph - N/A   Clear
10:15 PM 71.6 °F 46.4 °F 41% 29.95 in 10.0 mi South 10.4 mph 19.6 mph N/A   Clear
10:35 PM 73.4 °F 46.4 °F 38% 29.95 in 10.0 mi South 6.9 mph - N/A   Clear
10:55 PM 73.4 °F 46.4 °F 38% 29.95 in 10.0 mi South 9.2 mph - N/A   Clear
11:15 PM 71.6 °F 46.4 °F 41% 29.95 in 10.0 mi South 8.1 mph - N/A   Clear
11:35 PM 71.6 °F 46.4 °F 41% 29.94 in 10.0 mi South 9.2 mph - N/A   Clear
11:55 PM 71.6 °F 46.4 °F 41% 29.93 in 10.0 mi South 8.1 mph 19.6 mph N/A   Clear